DW5249 Weather Reports


Display with metric or nautical units.
time (UTC)temp
F
wind
direction
speed
MPH
gust
MPH
rain 1hr
in
rain 24hr
in
rain mn
in
humidity
%
barometer
mb
20260906120526 77 242 1.0 3.0 0.00 0.03 0.03 91 1010.1
20260906120024 77 242 1.0 3.0 0.00 0.03 0.03 91 1010.2
20260906115524 77 241 1.0 2.0 0.00 0.03 0.03 91 1010.2
20260906115023 77 240 1.0 2.0 0.00 0.03 0.03 91 1010.3
20260906114523 77 242 1.0 2.0 0.00 0.03 0.03 91 1010.2
20260906114021 77 242 0.0 3.0 0.00 0.03 0.03 91 1010.1
20260906113522 77 243 1.0 3.0 0.00 0.03 0.03 91 1010.0
20260906113021 77 265 1.0 2.0 0.00 0.03 0.03 91 1010.0
20260906112524 77 265 0.0 1.0 0.00 0.03 0.03 91 1010.1
20260906112019 77 265 0.0 3.0 0.00 0.03 0.03 91 1010.0
20260906111521 77 254 0.0 3.0 0.00 0.03 0.03 91 1009.9
20260906111017 77 256 1.0 3.0 0.00 0.03 0.03 91 1009.8
20260906110517 77 259 0.0 3.0 0.00 0.03 0.03 91 1009.8
20260906110017 77 259 1.0 3.0 0.00 0.03 0.03 91 1009.8
20260906105515 77 276 0.0 2.0 0.00 0.03 0.03 91 1009.7
20260906105016 77 276 0.0 3.0 0.00 0.03 0.03 91 1009.5
20260906104515 77 276 1.0 3.0 0.00 0.03 0.03 91 1009.4
20260906104015 77 276 1.0 3.0 0.00 0.03 0.03 91 1009.3
20260906103514 77 276 1.0 3.0 0.00 0.03 0.03 91 1009.3
20260906103014 77 276 1.0 3.0 0.00 0.03 0.03 91 1009.1
20260906102515 77 276 1.0 3.0 0.00 0.03 0.03 90 1009.1
20260906102014 77 276 1.0 3.0 0.00 0.03 0.03 90 1009.0
20260906101524 77 276 1.0 3.0 0.01 0.03 0.03 90 1009.0
20260906101013 78 276 0.0 2.0 0.02 0.03 0.03 90 1009.0
20260906100513 78 276 0.0 2.0 0.03 0.03 0.03 90 1009.1
20260906100013 78 276 0.0 2.0 0.03 0.03 0.03 90 1009.1
20260906095516 78 276 0.0 3.0 0.03 0.03 0.03 90 1009.1
20260906095012 78 276 0.0 3.0 0.03 0.03 0.03 90 1009.1
20260906094513 78 276 0.0 2.0 0.03 0.03 0.03 90 1009.0
20260906094012 78 276 0.0 3.0 0.03 0.03 0.03 90 1009.1
20260906093515 78 276 1.0 3.0 0.03 0.03 0.03 90 1009.0
20260906093020 77 292 0.0 2.0 0.03 0.03 0.03 90 1009.0
20260906092511 77 292 0.0 6.0 0.03 0.03 0.03 90 1009.0
20260906092015 77 316 1.0 8.0 0.03 0.03 0.03 90 1008.9
20260906091511 77 263 3.0 8.0 0.02 0.02 0.02 90 1008.9
20260906091013 77 281 3.0 11.0 0.01 0.01 0.01 90 1009.0
20260906090511 77 290 3.0 11.0 0.00 0.00 0.00 90 1009.1
20260906090032 77 277 2.0 6.0 0.00 0.00 0.00 90 1009.1
20260906085510 77 300 0.0 5.0 0.00 0.00 0.00 90 1008.9
20260906085010 77 279 1.0 5.0 0.00 0.00 0.00 90 1009.0
20260906084511 77 252 2.0 4.0 0.00 0.00 0.00 90 1009.0
20260906084009 77 275 1.0 3.0 0.00 0.00 0.00 90 1009.0
20260906083509 77 275 1.0 3.0 0.00 0.00 0.00 90 1008.9
20260906083009 78 275 1.0 2.0 0.00 0.00 0.00 90 1008.8
20260906082509 78 275 1.0 2.0 0.00 0.00 0.00 90 1008.8
20260906082010 78 275 1.0 2.0 0.00 0.00 0.00 90 1008.8
20260906081511 78 275 1.0 2.0 0.00 0.00 0.00 90 1008.8
20260906081007 78 275 1.0 3.0 0.00 0.00 0.00 90 1008.9
20260906080507 78 275 1.0 3.0 0.00 0.00 0.00 90 1008.9
20260906080007 78 275 1.0 3.0 0.00 0.00 0.00 90 1008.9
20260906075506 78 275 1.0 3.0 0.00 0.00 0.00 90 1008.9
20260906075008 78 275 0.0 3.0 0.00 0.00 0.00 89 1008.9
20260906074506 78 275 1.0 4.0 0.00 0.00 0.00 89 1008.8
20260906074005 78 231 3.0 6.0 0.00 0.00 0.00 89 1008.8
20260906073507 78 247 3.0 6.0 0.00 0.00 0.00 89 1008.8
20260906073004 78 250 2.0 5.0 0.00 0.00 0.00 89 1008.9
20260906072504 78 234 1.0 4.0 0.00 0.00 0.00 89 1008.9
20260906072007 78 241 3.0 4.0 0.00 0.00 0.00 89 1009.0
20260906071503 78 265 2.0 5.0 0.00 0.00 0.00 89 1009.0
20260906071004 78 250 2.0 5.0 0.00 0.00 0.00 89 1008.9
20260906070502 78 244 2.0 4.0 0.00 0.00 0.00 89 1009.0
20260906070001 78 241 2.0 4.0 0.00 0.00 0.00 89 1009.1
20260906065503 78 253 1.0 3.0 0.00 0.00 0.00 89 1009.0
20260906065100 78 254 0.0 2.0 0.00 0.00 0.00 89 1009.1
20260906064605 78 254 1.0 2.0 0.00 0.00 0.00 88 1009.1
20260906064059 78 265 0.0 3.0 0.00 0.00 0.00 88 1009.0
20260906063558 78 261 1.0 4.0 0.00 0.00 0.00 88 1009.1
20260906063058 78 256 2.0 4.0 0.00 0.00 0.00 88 1009.1
20260906062556 78 254 2.0 5.0 0.00 0.00 0.00 88 1009.1
20260906062056 79 255 3.0 7.0 0.00 0.00 0.00 88 1009.2
20260906061556 79 255 3.0 7.0 0.00 0.00 0.00 88 1009.3
20260906061059 79 249 2.0 4.0 0.00 0.00 0.00 88 1009.2
20260906060555 79 250 2.0 4.0 0.00 0.00 0.00 88 1009.3
20260906060053 79 251 2.0 4.0 0.00 0.00 0.00 88 1009.5
20260906055553 79 243 1.0 4.0 0.00 0.00 0.00 88 1009.4
20260906055053 79 240 2.0 4.0 0.00 0.00 0.00 87 1009.6
20260906054552 79 237 2.0 3.0 0.00 0.00 0.00 87 1009.6
20260906054052 79 254 2.0 3.0 0.00 0.00 0.00 87 1009.6
20260906053552 79 244 2.0 3.0 0.00 0.00 0.00 87 1009.6
20260906053052 79 251 1.0 3.0 0.00 0.00 0.00 87 1009.7
20260906052553 79 250 0.0 3.0 0.00 0.00 0.00 87 1009.7
20260906052050 79 259 2.0 5.0 0.00 0.00 0.00 87 1009.6
20260906051600 79 243 2.0 5.0 0.00 0.00 0.00 87 1009.6
20260906051049 79 253 3.0 7.0 0.00 0.00 0.00 87 1009.5
20260906050548 80 252 3.0 7.0 0.00 0.00 0.00 87 1009.5
20260906045547 80 265 3.0 6.0 0.00 0.00 0.00 86 1009.4
20260906045046 80 252 1.0 3.0 0.00 0.00 0.00 86 1009.5
20260906044550 80 265 1.0 4.0 0.00 0.00 0.00 86 1009.6
20260906044049 80 261 2.0 5.0 0.00 0.00 0.00 86 1009.5
20260906043545 80 221 3.0 5.0 0.00 0.00 0.00 86 1009.6
20260906043052 80 257 3.0 5.0 0.00 0.00 0.00 86 1009.6
20260906042544 80 250 2.0 5.0 0.00 0.00 0.00 86 1009.6
20260906042043 80 242 3.0 4.0 0.00 0.00 0.00 86 1009.6
20260906041543 80 219 2.0 8.0 0.00 0.00 0.00 85 1009.6
20260906041043 80 254 2.0 8.0 0.00 0.00 0.00 85 1009.6
20260906040543 81 252 4.0 7.0 0.00 0.00 0.00 85 1009.6
20260906040041 81 238 2.0 6.0 0.00 0.00 0.00 85 1009.5
20260906035544 81 269 3.0 7.0 0.00 0.00 0.00 85 1009.6
20260906035042 81 237 2.0 7.0 0.00 0.00 0.00 85 1009.6
20260906034554 81 233 3.0 7.0 0.00 0.00 0.00 85 1009.7
20260906034039 81 240 2.0 6.0 0.00 0.00 0.00 85 1009.9
20260906033539 81 256 3.0 6.0 0.00 0.00 0.00 85 1009.9
20260906033040 81 245 3.0 6.0 0.00 0.00 0.00 85 1010.0
20260906032539 81 257 1.0 4.0 0.00 0.00 0.00 85 1010.0
20260906032039 81 249 2.0 5.0 0.00 0.00 0.00 85 1010.2
20260906031546 81 234 3.0 5.0 0.00 0.00 0.00 86 1010.2
20260906031041 81 265 2.0 4.0 0.00 0.00 0.00 86 1010.2
20260906030539 81 261 2.0 4.0 0.00 0.00 0.00 86 1010.2
20260906030039 81 263 1.0 4.0 0.00 0.00 0.00 86 1010.3
20260906025538 81 235 2.0 4.0 0.00 0.00 0.00 86 1010.3
20260906025039 81 250 1.0 3.0 0.00 0.00 0.00 86 1010.4
20260906024538 81 262 1.0 4.0 0.00 0.00 0.00 86 1010.4
20260906024039 81 256 1.0 8.0 0.00 0.00 0.00 86 1010.2
20260906023538 81 245 3.0 8.0 0.00 0.00 0.00 86 1010.1
20260906023037 81 265 2.0 3.0 0.00 0.00 0.00 86 1010.2
20260906022537 81 242 1.0 3.0 0.00 0.00 0.00 86 1010.3
20260906022038 81 242 1.0 3.0 0.00 0.00 0.00 86 1010.3
20260906021538 81 245 1.0 3.0 0.00 0.00 0.00 86 1010.3
20260906021041 81 244 0.0 1.0 0.00 0.00 0.00 86 1010.2
20260906020539 82 244 0.0 3.0 0.00 0.00 0.00 85 1010.2
20260906020037 82 244 1.0 3.0 0.00 0.00 0.00 85 1010.1
20260906015536 82 242 0.0 0.0 0.00 0.00 0.00 85 1009.9
20260906015036 82 242 0.0 2.0 0.00 0.00 0.00 85 1009.8
20260906014536 82 242 1.0 2.0 0.00 0.00 0.00 85 1009.8
20260906014036 82 242 0.0 0.0 0.00 0.00 0.00 84 1009.8
20260906013537 82 242 0.0 0.0 0.00 0.00 0.00 84 1009.6
20260906013054 82 242 0.0 0.0 0.00 0.00 0.00 83 1009.6
20260906012534 82 242 0.0 0.0 0.00 0.00 0.00 83 1009.4
20260906012034 82 242 0.0 0.0 0.00 0.00 0.00 82 1009.5
20260906011541 83 242 0.0 0.0 0.00 0.00 0.00 82 1009.3
20260906011035 83 242 0.0 0.0 0.00 0.00 0.00 82 1009.3
20260906010535 83 242 0.0 0.0 0.00 0.00 0.00 81 1009.2
20260906010034 83 242 0.0 0.0 0.00 0.00 0.00 81 1009.1
20260906005534 83 242 0.0 0.0 0.00 0.00 0.00 81 1009.1
20260906005034 84 242 0.0 0.0 0.00 0.00 0.00 81 1009.0
20260906004533 84 242 0.0 0.0 0.00 0.00 0.00 81 1008.9
20260906004033 84 242 0.0 0.0 0.00 0.00 0.00 80 1008.9
20260906003533 84 242 0.0 0.0 0.00 0.00 0.00 80 1008.8
20260906003036 85 242 0.0 1.0 0.00 0.00 0.00 79 1008.9
20260906002532 85 242 0.0 0.0 0.00 0.00 0.00 79 1008.8
20260906002036 85 242 0.0 0.0 0.00 0.00 0.00 79 1008.7
20260906001532 86 242 0.0 1.0 0.00 0.00 0.00 78 1008.7
20260906001034 86 242 0.0 1.0 0.00 0.00 0.00 79 1008.5
20260906000532 86 242 0.0 0.0 0.00 0.00 0.00 78 1008.6
20260906000033 87 242 0.0 0.0 0.00 0.00 0.00 77 1008.6
20260905235532 87 242 0.0 0.0 0.00 0.00 0.00 76 1008.5
20260905235032 87 242 0.0 0.0 0.00 0.00 0.00 76 1008.5
20260905234532 88 242 0.0 0.0 0.00 0.00 0.00 76 1008.6
20260905234031 88 242 0.0 0.0 0.00 0.00 0.00 75 1008.4
20260905233532 88 242 0.0 0.0 0.00 0.00 0.00 75 1008.5
20260905233039 88 242 0.0 0.0 0.00 0.00 0.00 75 1008.6
20260905232531 89 242 0.0 0.0 0.00 0.00 0.00 75 1008.6
20260905232030 89 242 0.0 1.0 0.00 0.00 0.00 74 1008.6
20260905231531 88 242 0.0 2.0 0.00 0.00 0.00 73 1008.6
20260905231028 88 242 0.0 3.0 0.00 0.00 0.00 72 1008.7
20260905230528 88 257 0.0 4.0 0.00 0.00 0.00 72 1008.7
20260905230027 88 255 2.0 4.0 0.00 0.00 0.00 73 1008.8
20260905225526 88 254 1.0 3.0 0.00 0.00 0.00 74 1008.9
20260905225026 88 254 1.0 2.0 0.00 0.00 0.00 74 1008.9
20260905224525 88 246 0.0 2.0 0.00 0.00 0.00 77 1008.9
20260905224024 88 246 0.0 0.0 0.00 0.00 0.00 79 1009.0
20260905223524 88 246 0.0 0.0 0.00 0.00 0.00 77 1009.0
20260905223024 88 246 0.0 2.0 0.00 0.00 0.00 76 1009.0
20260905222528 88 246 0.0 2.0 0.00 0.00 0.00 74 1009.1
20260905222024 88 246 1.0 3.0 0.00 0.00 0.00 74 1009.2
20260905221523 88 244 0.0 3.0 0.00 0.00 0.00 73 1009.1
20260905221025 88 237 1.0 3.0 0.00 0.00 0.00 72 1009.1
20260905220523 88 252 1.0 2.0 0.00 0.00 0.00 72 1009.1
20260905220023 88 252 0.0 6.0 0.00 0.00 0.00 73 1009.2
20260905215526 88 252 1.0 9.0 0.00 0.00 0.00 72 1009.2
20260905215023 89 264 5.0 9.0 0.00 0.00 0.00 71 1009.1
20260905214526 89 274 0.0 5.0 0.00 0.00 0.00 70 1009.1
20260905214022 89 283 2.0 6.0 0.00 0.00 0.00 69 1009.1
20260905213523 89 240 0.0 9.0 0.00 0.00 0.00 69 1009.2
20260905213022 90 259 5.0 9.0 0.00 0.00 0.00 67 1009.2
20260905212521 90 272 2.0 5.0 0.00 0.00 0.00 68 1009.2
20260905212020 90 263 0.0 4.0 0.00 0.00 0.00 68 1009.2
20260905211520 89 252 2.0 6.0 0.00 0.00 0.00 69 1009.3
20260905211021 89 272 2.0 6.0 0.00 0.00 0.00 69 1009.4
20260905210521 90 273 1.0 5.0 0.00 0.00 0.00 67 1009.4
20260905210034 90 267 1.0 7.0 0.00 0.00 0.00 66 1009.3
20260905205520 90 221 3.0 7.0 0.00 0.00 0.00 68 1009.2
20260905205020 90 269 2.0 7.0 0.00 0.00 0.00 66 1009.3
20260905204520 91 265 3.0 8.0 0.00 0.00 0.00 67 1009.2
20260905204018 91 229 5.0 8.0 0.00 0.00 0.00 65 1009.2
20260905203518 91 229 3.0 8.0 0.00 0.00 0.00 67 1009.1
20260905203020 91 227 3.0 9.0 0.00 0.00 0.00 68 1009.1
20260905202618 91 262 6.0 12.0 0.00 0.00 0.00 66 1009.1
20260905202021 91 237 2.0 8.0 0.00 0.00 0.00 66 1009.1
20260905201517 91 247 1.0 8.0 0.00 0.00 0.00 67 1009.1
20260905201016 90 240 1.0 8.0 0.00 0.00 0.00 67 1009.2
20260905200515 91 271 3.0 11.0 0.00 0.00 0.00 67 1009.3
20260905200022 91 234 5.0 11.0 0.00 0.00 0.00 67 1009.3
20260905195514 90 247 3.0 9.0 0.00 0.05 0.00 67 1009.3
20260905195014 90 265 3.0 9.0 0.00 0.05 0.00 68 1009.3
20260905194513 90 271 4.0 8.0 0.00 0.05 0.00 69 1009.4
20260905194012 90 277 1.0 10.0 0.00 0.05 0.00 70 1009.6
20260905193511 90 276 6.0 10.0 0.00 0.05 0.00 70 1009.7
20260905193010 90 236 3.0 9.0 0.00 0.05 0.00 70 1009.8
20260905192509 90 272 6.0 12.0 0.00 0.05 0.00 70 1009.9
20260905192009 90 271 5.0 12.0 0.00 0.05 0.00 69 1010.0
20260905191509 90 289 3.0 7.0 0.00 0.05 0.00 70 1010.0
20260905191009 90 256 2.0 8.0 0.00 0.05 0.00 71 1010.0
20260905190508 90 282 4.0 8.0 0.00 0.05 0.00 69 1010.0
20260905190009 91 234 4.0 8.0 0.00 0.05 0.00 72 1010.0
20260905185506 90 265 2.0 6.0 0.00 0.33 0.00 70 1010.2
20260905185010 90 286 2.0 10.0 0.00 0.33 0.00 69 1010.2
20260905184509 89 273 3.0 10.0 0.00 0.33 0.00 70 1010.3
20260905184004 89 286 2.0 13.0 0.00 0.33 0.00 72 1010.4
20260905183504 90 319 3.0 13.0 0.00 0.33 0.00 71 1010.4
20260905183005 90 243 3.0 7.0 0.00 0.33 0.00 70 1010.5
20260905182504 90 29 1.0 9.0 0.00 0.33 0.00 72 1010.5
20260905182002 90 261 4.0 10.0 0.00 0.33 0.00 72 1010.7
20260905181501 89 271 6.0 10.0 0.00 0.33 0.00 73 1010.6
20260905181100 89 254 5.0 8.0 0.00 0.33 0.00 74 1010.6
20260905180559 88 269 2.0 8.0 0.00 0.33 0.00 75 1010.8
20260905180058 87 277 2.0 8.0 0.00 0.33 0.00 74 1010.8
20260905175558 88 267 2.0 5.0 0.00 0.33 0.00 78 1010.8
20260905175058 87 281 0.0 4.0 0.00 0.33 0.00 75 1011.0
20260905174604 88 281 1.0 8.0 0.00 0.33 0.00 75 1011.0
20260905174055 88 290 0.0 8.0 0.00 0.33 0.00 76 1011.0
20260905173555 88 270 2.0 8.0 0.00 0.33 0.00 75 1011.1
20260905173054 87 227 4.0 9.0 0.00 0.33 0.00 76 1011.2
20260905172555 87 255 2.0 9.0 0.00 0.33 0.00 77 1011.3
20260905172054 86 235 2.0 7.0 0.00 0.33 0.00 80 1011.5
20260905171619 86 277 2.0 6.0 0.00 0.33 0.00 77 1011.6
20260905171053 87 273 1.0 3.0 0.00 0.33 0.00 77 1011.6
20260905170553 87 288 1.0 8.0 0.00 0.33 0.00 78 1011.7
20260905165551 86 255 4.0 10.0 0.00 0.37 0.00 78 1011.8
20260905165050 86 239 3.0 8.0 0.00 0.37 0.00 79 1011.9
20260905164551 85 268 5.0 8.0 0.00 0.37 0.00 82 1012.0
20260905164047 85 237 2.0 4.0 0.00 0.37 0.00 82 1012.1
20260905163547 84 248 0.0 5.0 0.00 0.37 0.00 82 1012.2
20260905163053 84 232 3.0 5.0 0.00 0.37 0.00 82 1012.3
20260905162548 84 273 0.0 8.0 0.00 0.37 0.00 83 1012.4
20260905162046 84 273 2.0 8.0 0.00 0.37 0.00 82 1012.4
20260905161546 84 235 2.0 6.0 0.00 0.37 0.00 82 1012.5
20260905161046 84 317 1.0 4.0 0.00 0.37 0.00 84 1012.6
20260905160544 84 303 1.0 4.0 0.00 0.37 0.00 82 1012.7
20260905160044 84 329 1.0 4.0 0.00 0.37 0.00 84 1012.8
20260905155543 83 278 1.0 4.0 0.00 0.37 0.00 85 1012.9
20260905155041 83 225 3.0 4.0 0.00 0.37 0.00 87 1012.9
20260905154549 82 290 0.0 2.0 0.00 0.37 0.00 86 1013.0
20260905154041 81 291 0.0 2.0 0.00 0.37 0.00 86 1013.0
20260905153540 81 290 0.0 2.0 0.00 0.37 0.00 87 1013.0
20260905153039 82 290 0.0 4.0 0.00 0.37 0.00 87 1013.1
20260905152539 81 290 2.0 8.0 0.00 0.37 0.00 87 1013.1
20260905152039 81 272 5.0 8.0 0.00 0.37 0.00 87 1013.1
20260905151539 81 260 1.0 8.0 0.00 0.37 0.00 87 1013.2
20260905151038 81 310 2.0 8.0 0.00 0.37 0.00 88 1013.2
20260905150536 80 277 2.0 8.0 0.00 0.37 0.00 89 1013.2
20260905150042 80 257 0.0 4.0 0.00 0.37 0.00 89 1013.2
20260905145538 80 281 1.0 8.0 0.00 0.37 0.00 89 1013.1
20260905145035 80 245 3.0 10.0 0.00 0.37 0.00 90 1013.0
20260905144537 79 236 3.0 7.0 0.00 0.37 0.00 90 1013.0
20260905144032 79 329 1.0 8.0 0.00 0.37 0.00 91 1013.0
20260905143532 79 270 3.0 7.0 0.00 0.37 0.00 91 1013.1
20260905143031 79 255 0.0 4.0 0.00 0.37 0.00 92 1013.2
20260905142532 78 261 1.0 4.0 0.00 0.37 0.00 92 1013.2
20260905142029 78 267 2.0 9.0 0.00 0.37 0.00 92 1013.2
20260905141530 78 264 5.0 9.0 0.00 0.37 0.00 92 1013.2
20260905141028 78 254 0.0 4.0 0.00 0.37 0.00 93 1013.2
20260905140530 78 253 1.0 4.0 0.00 0.37 0.00 93 1013.1
20260905140029 78 290 0.0 2.0 0.00 0.37 0.00 93 1013.2
20260905135527 78 289 0.0 3.0 0.00 0.37 0.00 93 1013.2
20260905135027 77 289 1.0 5.0 0.00 0.37 0.00 93 1013.1
20260905134526 77 275 1.0 7.0 0.00 0.37 0.00 93 1013.0
20260905134025 77 288 1.0 7.0 0.00 0.37 0.00 93 1013.0
20260905133524 77 250 1.0 5.0 0.00 0.37 0.00 94 1013.0
20260905133023 77 269 2.0 6.0 0.00 0.37 0.00 93 1012.8
20260905132524 77 264 2.0 5.0 0.00 0.37 0.00 94 1012.8
20260905132023 76 260 0.0 4.0 0.00 0.37 0.00 94 1012.8
20260905131533 76 300 0.0 5.0 0.00 0.37 0.00 93 1012.9
20260905131024 76 261 1.0 5.0 0.00 0.37 0.00 94 1012.8
20260905130521 76 254 0.0 5.0 0.00 0.37 0.00 94 1012.8
20260905130021 76 259 1.0 7.0 0.00 0.37 0.00 94 1012.9
20260905125521 76 267 4.0 7.0 0.00 0.37 0.00 93 1012.9
20260905125023 76 243 2.0 5.0 0.00 0.37 0.00 94 1012.9
20260905124519 76 260 1.0 4.0 0.00 0.37 0.00 93 1012.9
20260905124018 75 258 1.0 4.0 0.00 0.37 0.00 94 1012.8
20260905123517 75 239 1.0 4.0 0.00 0.37 0.00 94 1012.8
20260905123024 75 252 3.0 4.0 0.00 0.37 0.00 94 1012.8
20260905122515 75 242 2.0 4.0 0.00 0.37 0.00 93 1012.8
20260905122014 75 254 0.0 2.0 0.00 0.37 0.00 93 1012.7
20260905121513 75 254 0.0 2.0 0.00 0.37 0.00 93 1012.7
20260905121013 75 254 0.0 2.0 0.00 0.37 0.00 93 1012.6